Home   Weather   Uberaba   Past weeks

Flag for Brazil Past Weather in Uberaba, Minas Gerais, Brazil — Yesterday and Last 2 Weeks

Now
84 °F

Light rain. Broken clouds.


Feels Like: 87 °F
Forecast: 68 / 80 °F
Wind: 9 mph from West

Location: Leite Lopes / Ribeir

Current Time: Dec 3, 2016 at 5:49:53 pm

Latest Report: Dec 3, 2016 at 5:00 pm


Visibility: N/A

Pressure: 29.80 "Hg (27.32 "Hg at 767m altitude)

Humidity: 58%

Dew Point: 68 °F

Location of UberabaLocation

Past Weather in Uberaba — Graph

°F

Uberaba Temperature Yesterday

Maximum temperature yesterday: 86 °F (at 1:00 pm)
Minimum temperature yesterday: 70 °F (at 5:00 am)
Average temperature yesterday: 76 °F

High & Low Weather Summary for the Past Weeks

 TemperatureHumidityPressure
High93 °F (Nov 24, 4:00 pm)100% (Nov 25, 8:00 pm)30.07 "Hg (Nov 25, 8:00 pm)
Low55 °F (Nov 20, 4:00 am)24% (Nov 20, 6:00 pm)29.80 "Hg (Nov 22, 5:00 pm)
Average77 °F67%29.94 "Hg
* Reported Nov 18 8:00 pm — Dec 3 5:00 pm, Uberaba, Weather by CustomWeather, © 2016

Note: Actual official high and low records may vary slightly from our data, if they occured in-between our weather recording intervals... More about our weather records

Advertising

Uberaba Weather History for the Previous 24 Hours

Scroll right to see more
 ConditionsComfort  
Time TempWeatherWind HumidityBarometerVisibility
5:00 pm
Sat, Dec 3
84 °FLight rain. Broken clouds.9 mph58%29.80 "HgN/A
4:00 pm86 °FScattered clouds.9 mph52%29.83 "HgN/A
3:00 pm88 °FScattered clouds.13 mph49%29.83 "HgN/A
2:00 pm90 °FBroken clouds.13 mph46%29.83 "HgN/A
1:00 pm88 °FBroken clouds.13 mph52%29.89 "HgN/A
12:00 pm86 °FBroken clouds.8 mph59%29.92 "HgN/A
11:00 am84 °FPartly sunny.9 mph62%29.92 "HgN/A
10:00 am82 °FScattered clouds.5 mph70%29.95 "HgN/A
9:00 am79 °FSunny.5 mph74%29.92 "Hg10 mi
8:00 am75 °FSunny.6 mph83%29.92 "Hg10 mi
7:00 am72 °FPassing clouds.6 mph94%29.95 "HgN/A
6:00 am72 °FPassing clouds.5 mph94%29.92 "HgN/A
5:00 am72 °FClear.1 mph94%29.92 "Hg10 mi
1:00 am73 °FPassing clouds.3 mph83%29.98 "HgN/A
12:00 am75 °FPassing clouds.3 mph78%29.98 "HgN/A
11:00 pm
Fri, Dec 2
75 °FPassing clouds.1 mph78%29.98 "HgN/A
10:00 pm77 °FThunderstorms. Passing clouds.6 mph69%29.98 "HgN/A
9:00 pm77 °FPassing clouds.8 mph74%29.95 "HgN/A
7:00 pm81 °FScattered clouds.6 mph66%29.92 "HgN/A
6:00 pm82 °FPartly sunny.5 mph55%29.92 "HgN/A
5:00 pm84 °FThunderstorms. Partly sunny.No wind62%29.95 "Hg5 mi
Weather by CustomWeather, © 2016

See weather overviewHow to use our weather pages